Regional Weather Roundup
Issued by NWS Little Rock, AR

Home | Current Version | Previous Version | Graphics & Text | Print | Product List | Glossary On
Versions: 1 2 3 4 5 6 7 8 9 10 11 12 13 14 15 16 17 18 19 20 21 22 23 24 25 26 27 28 29 30 31
000
ASUS44 KLZK 230612
RWRLZK

WEATHER ROUNDUP FOR ARKANSAS
NATIONAL WEATHER SERVICE LITTLE ROCK AR
1200 AM CST MON JAN 23 2017

NOTE: "FAIR" INDICATES FEW OR NO CLOUDS BELOW 12,000 FEET WITH NO
SIGNIFICANT WEATHER AND/OR OBSTRUCTIONS TO VISIBILITY.

ARZ001-003-010-029-230700-
NORTHWEST ARKANSAS

CITY           SKY/WX    TMP DP  RH WIND       PRES   REMARKS
FAYETTEVILLE   CLOUDY    35  32  88 N13       29.89R WCI  26
6HR MIN TEMP:  35; 6HR MAX TEMP:  45;

FORT SMITH     CLOUDY    41  33  73 NW8       29.89R
6HR MIN TEMP:  41; 6HR MAX TEMP:  51;

HARRISON       LGT RAIN  36  35  96 NW16G22   29.82R
6HR MIN TEMP:  36; 6HR MAX TEMP:  45; 6HR PCP:  0.05;

BENTONVILLE    CLOUDY   N/A N/A N/A N9        29.88S
ROGERS         CLOUDY    35  33  92 N10G17    29.89R WCI  27
6HR MIN TEMP:  34; 6HR MAX TEMP:  45;

SILOAM SPGS    CLOUDY    37  30  75 N13       29.90R
6HR MIN TEMP:  36; 6HR MAX TEMP:  45;

HIGHFILL       CLOUDY    37  33  85 N15       29.89R
6HR MIN TEMP:  35; 6HR MAX TEMP:  45; 6HR PCP: TRACE;

$$

ARZ004-005-016-230700-
NORTH CENTRAL ARKANSAS

CITY           SKY/WX    TMP DP  RH WIND       PRES   REMARKS
BATESVILLE     CLOUDY    46  37  71 NW12G23   29.72R
6HR MIN TEMP:  46; 6HR MAX TEMP:  52;

FLIPPIN        CLOUDY    39  32  75 NW9       29.78R
6HR MIN TEMP:  39; 6HR MAX TEMP:  48;

MTN HOME       CLOUDY    39  35  86 N9G16     29.78R
6HR MIN TEMP:  39; 6HR MAX TEMP:  46;

$$

ARZ040-041-230700-
WEST CENTRAL ARKANSAS

CITY           SKY/WX    TMP DP  RH WIND       PRES   REMARKS
MENA           CLEAR     46  39  76 NW10      29.83R
MOUNT IDA      PTCLDY    48  38  68 NW9G21    29.75S
6HR MIN TEMP:  48; 6HR MAX TEMP:  53;

$$

ARZ009-017-025-026-028-230700-
NORTHEAST ARKANSAS

CITY           SKY/WX    TMP DP  RH WIND       PRES   REMARKS
CORNING        FAIR      48  39  71 NW15G31   29.64S
JONESBORO      CLEAR     49  40  71 NW23G30   29.60R
6HR MIN TEMP:  49; 6HR MAX TEMP:  59; 6HR PCP:  0.05;

NEWPORT        CLEAR     46  40  79 MISG      29.66
6HR MIN TEMP:  46; 6HR MAX TEMP:  53;

WALNUT RIDGE   CLEAR     46  37  71 NW23G30   29.65R
6HR MIN TEMP:  46; 6HR MAX TEMP:  54; 6HR PCP:  0.01;

BLYTHEVILLE    MOCLDY    49  44  83 N17       29.58R
6HR MIN TEMP:  50; 6HR MAX TEMP:  58; 6HR PCP:  0.01;

$$

ARZ022-023-033-042-044-230700-
CENTRAL ARKANSAS

CITY           SKY/WX    TMP DP  RH WIND       PRES   REMARKS
LITTLE ROCK    PTCLDY    49  44  83 NW20G26   29.70R
6HR MIN TEMP:  49; 6HR MAX TEMP:  54;

N LITTLE ROCK    N/A     49  44  84 N12G23    29.71R
6HR MIN TEMP:  49; 6HR MAX TEMP:  53;

JACKSONVILLE   CLEAR     50  44  81 NW12      29.70R
6HR MIN TEMP:  50; 6HR MAX TEMP:  55;

SEARCY         MOCLDY    49  43  80 NW12G21   29.69R
6HR MIN TEMP:  49; 6HR MAX TEMP:  53;

HOT SPRINGS    MOCLDY    50  40  68 NW10G18   29.75R
6HR MIN TEMP:  50; 6HR MAX TEMP:  55; 6HR PCP: TRACE;

RUSSELLVILLE   CLOUDY    49  41  74 NW8       29.77R
6HR MIN TEMP:  49; 6HR MAX TEMP:  54;

CLINTON        CLOUDY    46  39  76 NW14G21   29.75R
$$

ARZ036-230700-
EAST ARKANSAS

CITY           SKY/WX    TMP DP  RH WIND       PRES   REMARKS
WEST MEMPHIS   PTCLDY    50  46  86 N9G18     29.57R
6HR MIN TEMP:  50; 6HR MAX TEMP:  58; 6HR PCP:  0.01;

$$

ARZ050-053-066-070-073-230700-
SOUTHWEST ARKANSAS

CITY           SKY/WX    TMP DP  RH WIND       PRES   REMARKS
ARKADELPHIA    CLOUDY    51  40  65 NW12      29.76R
6HR MIN TEMP:  51; 6HR MAX TEMP:  57;

CAMDEN         CLOUDY    50  39  66 NW8       29.74R
TEXARKANA      CLEAR     49  40  71 NW15      29.82R
6HR MIN TEMP:  49; 6HR MAX TEMP:  54;

EL DORADO        N/A    N/A N/A N/A MISG      29.76R
DE QUEEN       CLEAR     49  36  61 NW10      29.83R
6HR MIN TEMP:  46; 6HR MAX TEMP:  53;

$$

ARZ056-057-069-230700-
SOUTHEAST ARKANSAS

CITY           SKY/WX    TMP DP  RH WIND       PRES   REMARKS
PINE BLUFF     CLOUDY    52  45  77 NW12G20   29.68R
6HR MIN TEMP:  52; 6HR MAX TEMP:  55; 6HR PCP: TRACE;

STUTTGART      CLEAR     50  39  66 NW23G30   29.67R
6HR MIN TEMP:  50; 6HR MAX TEMP:  55;

MONTICELLO     CLOUDY    54  45  71 NW14G24   29.67R
6HR MIN TEMP:  54; 6HR MAX TEMP:  55; 6HR PCP:  0.05;


$$






USA.gov is the U.S. government's official web portal to all federal, state and local government web resources and services.